GEOSCAN 4 (RS92S4)

Last updated on Mon Sep 15 2025 00:03:10 GMT+0000 (Coordinated Universal Time)

1 64892U 25155S 25257.16881517 .00009651 00000+0 40735-3 0 9997 2 64892 97.4202 221.7729 0010219 84.8210 275.4193 15.23439671 38655
UTC large
Height (km)
Speed (km/s)
/
Latitude / Longitude
Inclination (degrees)
Orbital Period (minutes)
Azimuth
Elevation
Range (km)
Doppler Factor

Next 0 passes for location: London (51.5072 / 0.1276)

Sorry there are no passes over London.